Hourly Data Report for July 12, 2003

TORONTO CITY
ONTARIO

43°40'00.000" N
79°24'00.000" W
112.50 m
6158355
71508
XTO

Download Data

Hourly Data (July 2003)
Hourly Data Report for July 12, 2003
TIME
LST
Temp Definition
°C
Dew Point Definition
°C
Rel Hum Definition
%
Precip. Amount Definition
mm

Wind Dir Definition
10's deg

Wind Spd Definition
km/h
Visibility Definition
km
Stn Press Definition
kPa
Hmdx Definition


Wind Chill Definition


Weather Definition


00:00 17.1 13.2 78   LegendMM LegendMM LegendMM 99.07     LegendNANA
01:00 16.1 12.7 80   LegendMM LegendMM LegendMM 99.06     LegendNANA
02:00 16.3 12.6 79   LegendMM LegendMM LegendMM 99.03     LegendNANA
03:00 16.4 12.7 79   LegendMM LegendMM LegendMM 99.01     LegendNANA
04:00 16.6 13.0 79   LegendMM LegendMM LegendMM 98.99     LegendNANA
05:00 16.7 13.1 79   LegendMM LegendMM LegendMM 99.03     LegendNANA
06:00 16.9 13.4 80   LegendMM LegendMM LegendMM 99.06     LegendNANA
07:00 17.1 13.7 80   LegendMM LegendMM LegendMM 99.09     LegendNANA
08:00 17.7 14.3 80   LegendMM LegendMM LegendMM 99.13     LegendNANA
09:00 17.0 14.3 84   LegendMM LegendMM LegendMM 99.18     LegendNANA
10:00 17.8 15.3 85   LegendMM LegendMM LegendMM 99.24     LegendNANA
11:00 18.5 14.9 80   LegendMM LegendMM LegendMM 99.33     LegendNANA
12:00 18.6 14.6 78   LegendMM LegendMM LegendMM 99.40     LegendNANA
13:00 18.7 14.8 78   LegendMM LegendMM LegendMM 99.46     LegendNANA
14:00 18.8 14.3 75   LegendMM LegendMM LegendMM 99.56     LegendNANA
15:00 19.3 13.8 70   LegendMM LegendMM LegendMM 99.59     LegendNANA
16:00 19.2 13.6 70   LegendMM LegendMM LegendMM 99.63     LegendNANA
17:00 19.0 13.0 68   LegendMM LegendMM LegendMM 99.63     LegendNANA
18:00 18.5 12.9 70   LegendMM LegendMM LegendMM 99.71     LegendNANA
19:00 18.0 13.3 74   LegendMM LegendMM LegendMM 99.78     LegendNANA
20:00 17.8 13.0 73   LegendMM LegendMM LegendMM 99.83     LegendNANA
21:00 17.8 13.1 74   LegendMM LegendMM LegendMM 99.94     LegendNANA
22:00 18.1 13.0 72   LegendMM LegendMM LegendMM 100.01     LegendNANA
23:00 18.1 13.2 73   LegendMM LegendMM LegendMM 100.08     LegendNANA

Notes on Data Quality.

Legend

  • E = Estimated
  • M = Missing
  • NA = Not Available*
  • [empty] = Indicates an unobserved value
Date modified: